Temperature
8 8 7 7 7 7 7 6 6 7 7 8 9 9 9 8 8 9 9 9 10 10 10 10 10 11 11 10 10 10 10 10 10 9 8 6 5 5
7 7 7 7 7 6 6 6 6 6 6 7 8 8 8 8 7 8 8 9 9 9 10 10 10 10 10 10 10 10 10 9 9 9 7 7 5 5
7 6 6 6 6 6 6 6 6 6 5 6 6 7 7 8 8 8 8 8 8 9 9 9 9 9 9 9 9 9 9 9 8 8 7 6 5 4
6 6 6 6 6 5 5 5 5 5 5 5 6 6 7 7 7 8 7 8 8 8 8 9 9 9 9 9 8 8 8 8 8 7 7 6 5 4
6 6 5 5 5 5 5 5 5 5 5 5 5 6 6 6 7 7 7 8 8 8 8 8 8 8 8 8 8 8 8 8 7 7 7 6 5 4
5 5 5 5 5 5 5 5 5 5 5 4 4 5 5 6 6 6 7 8 8 8 8 8 8 8 7 7 7 8 7 7 7 7 7 6 5 4
4 4 4 3 4 4 4 4 4 4 4 3 3 4 5 5 5 6 6 7 7 7 7 8 8 7 7 7 6 7 6 6 6 6 6 6 5 4
2 2 2 2 3 3 3 3 2 2 2 2 2 3 4 4 5 5 5 6 5 6 6 7 7 7 7 7 7 6 6 6 6 6 6 6 5 4
1 1 1 1 1 1 1 0 1 0 1 1 2 2 3 4 4 4 4 5 5 6 6 6 6 6 7 7 7 7 7 7 6 6 5 5 5 4
-1 -1 -1 -1 -1 -1 -2 -2 -1 -0 -0 0 1 2 2 3 3 4 4 4 4 5 5 5 5 6 7 7 7 7 7 7 6 6 5 4 4 3
-4 -3 -3 -3 -3 -4 -3 -3 -3 -2 -1 -0 1 1 2 2 3 3 3 4 4 4 4 4 4 5 5 4 5 5 5 5 5 4 4 4 3 2
-5 -5 -5 -5 -5 -5 -4 -4 -4 -3 -3 -2 -1 -0 1 1 2 2 3 3 4 4 4 4 4 4 3 4 4 4 4 4 4 3 3 3 2 1
-7 -7 -7 -6 -6 -6 -5 -5 -5 -4 -3 -3 -2 -1 -1 0 1 2 2 3 3 4 4 3 3 3 3 3 3 4 4 3 3 3 2 2 1 0
-8 -8 -8 -8 -7 -6 -5 -5 -5 -5 -4 -3 -2 -2 -1 -1 0 1 2 2 3 3 3 3 3 3 3 3 3 3 3 3 2 2 2 1 0 -1
-10 -9 -9 -8 -7 -6 -6 -5 -5 -5 -5 -5 -3 -2 -2 -1 -1 0 1 1 2 2 2 3 3 3 3 3 3 2 2 2 2 1 1 0 -0 -1
-10 -9 -9 -8 -8 -7 -6 -6 -6 -6 -6 -6 -6 -5 -4 -3 -2 -1 1 1 1 1 2 2 2 3 3 2 2 2 2 2 1 1 0 -0 -1 -2
-10 -9 -9 -9 -8 -8 -7 -7 -7 -6 -7 -7 -6 -6 -5 -4 -2 -2 0 0 1 1 1 2 2 2 2 2 2 1 1 1 1 0 -0 -1 -2 -2
-10 -10 -10 -10 -10 -10 -10 -9 -8 -8 -8 -8 -7 -6 -6 -5 -3 -2 -1 0 1 1 1 1 1 1 0 -0 0 0 0 0 -0 -1 -1 -2 -3 -3
-11 -11 -11 -12 -12 -12 -11 -11 -10 -9 -9 -9 -8 -7 -6 -5 -4 -2 -1 -1 -0 -0 0 1 1 0 -1 -2 -2 -2 -1 -1 -2 -3 -3 -3 -3 -3
-12 -13 -13 -13 -13 -12 -12 -12 -11 -10 -10 -10 -8 -7 -6 -5 -4 -3 -2 -1 -1 -1 -1 -1 -1 -1 -1 -2 -4 -4 -4 -3 -3 -3 -4 -4 -4 -5
-14 -14 -14 -13 -13 -13 -13 -12 -11 -11 -11 -10 -8 -7 -6 -5 -5 -4 -3 -2 -2 -2 -2 -3 -3 -3 -2 -3 -4 -6 -6 -5 -4 -4 -5 -6 -6 -7
-15 -15 -14 -14 -14 -14 -13 -12 -12 -11 -11 -11 -9 -8 -7 -6 -5 -5 -4 -5 -5 -4 -5 -5 -5 -5 -4 -4 -6 -7 -8 -8 -7 -7 -7 -7 -7 -7
-16 -15 -15 -15 -14 -14 -13 -13 -12 -12 -11 -11 -9 -8 -7 -7 -6 -6 -6 -6 -6 -6 -6 -7 -6 -6 -6 -5 -7 -8 -9 -9 -8 -8 -8 -8 -7 -7
Wind_Speed
8 8 5 5 5 5 4 5 7 6 6 8 9 9 8 6 9 13 13 16 20 21 27 31 33 34 34 34 33 30 28 27 26 26 27 28 27 25
6 7 6 5 5 5 4 5 6 9 7 6 8 4 5 6 8 10 12 14 18 21 23 27 31 33 31 30 31 31 29 27 26 27 29 28 27 26
7 7 8 6 4 5 5 5 5 6 10 8 6 6 8 10 9 6 7 7 10 18 23 24 28 29 28 28 28 29 29 28 27 27 28 27 27 26
9 7 7 4 4 3 4 5 6 7 7 9 7 7 11 12 13 10 8 7 7 15 22 24 24 25 25 27 26 26 27 27 27 27 27 27 27 26
8 6 5 2 2 2 4 5 5 6 6 7 8 6 9 8 10 10 10 9 8 12 16 21 24 25 24 22 22 23 24 25 25 26 27 26 25 26
4 2 2 3 3 4 4 5 6 6 7 8 9 7 7 7 8 10 8 8 8 7 9 12 17 21 23 24 23 21 21 24 26 27 26 25 24 23
6 5 4 6 6 7 7 6 6 6 7 8 9 8 6 6 7 8 10 9 10 8 8 9 10 10 14 19 20 21 23 26 28 29 28 26 24 22
8 9 8 7 7 11 13 14 14 11 10 10 11 12 11 8 8 10 10 8 8 6 7 8 9 12 13 13 20 23 26 29 30 30 29 28 26 25
10 10 10 11 12 9 12 15 16 20 20 15 14 16 13 10 9 11 12 12 9 7 11 11 11 13 13 12 23 27 29 30 30 30 29 29 27 26
8 8 8 9 11 15 13 13 13 14 17 16 15 14 13 11 10 12 13 14 13 7 11 9 11 12 12 13 20 26 29 31 31 31 30 29 28 26
8 8 10 10 18 22 16 14 14 14 18 24 23 23 24 22 16 11 12 13 11 7 10 8 8 9 9 9 13 21 26 28 29 29 30 29 27 25
8 9 16 18 23 25 19 15 16 16 16 16 18 18 17 19 23 19 14 14 11 8 10 10 7 7 5 4 7 11 14 22 27 29 28 28 27 16
10 10 12 23 25 25 23 16 19 22 19 17 15 14 12 12 13 14 14 14 13 10 11 13 8 7 6 4 4 9 10 11 13 17 24 29 29 20
10 10 13 24 24 24 19 21 27 23 15 14 14 13 12 11 12 13 14 13 14 12 12 16 9 11 9 5 4 6 7 8 9 9 11 19 24 24
12 17 20 22 20 16 20 23 19 13 12 13 13 13 11 12 13 13 13 13 14 13 13 17 13 11 12 9 6 6 6 3 7 9 10 11 12 13
11 14 18 17 14 15 16 14 11 12 13 13 13 14 14 12 13 14 13 12 11 7 8 16 16 15 13 10 9 8 7 5 5 9 10 8 9 9
13 9 9 9 10 11 11 12 12 13 13 13 14 15 14 14 13 14 13 11 11 8 5 4 6 6 5 7 8 10 8 6 9 12 13 9 8 8
10 8 9 10 11 12 13 14 14 14 14 15 15 16 15 15 16 14 13 11 11 11 9 7 9 8 5 7 4 9 9 8 9 11 10 8 7 7
8 8 9 10 11 12 12 13 15 16 17 16 16 17 16 15 16 13 12 10 8 10 10 11 13 13 10 5 2 4 9 11 10 8 7 6 7 8
7 8 9 10 11 12 13 14 15 16 16 16 17 17 16 13 11 9 9 8 10 10 9 9 9 11 11 9 6 4 8 11 10 9 8 8 7 8
8 9 9 10 11 12 13 14 15 16 18 17 17 18 15 11 7 5 7 11 13 11 11 9 9 15 12 11 11 9 8 10 12 11 11 10 6 4
9 9 10 11 11 11 13 14 15 17 18 17 17 16 11 5 0 4 7 9 10 11 13 11 13 13 11 12 14 13 13 13 16 18 14 9 5 5
9 9 10 11 11 12 12 14 16 16 17 16 16 14 9 3 3 6 9 10 12 14 14 13 11 12 12 15 16 14 15 14 12 10 8 8 8 5
Wind_Direction
255 253 243 252 259 263 252 253 260 265 254 239 231 197 189 228 222 216 216 217 223 217 201 198 196 194 197 193 193 197 203 207 206 207 210 213 213 212
250 257 257 250 256 265 250 242 238 260 268 247 237 217 176 202 223 217 222 214 218 215 207 204 201 197 198 201 194 194 198 204 205 206 210 214 214 213
255 247 258 262 256 271 269 253 243 241 267 273 252 234 226 222 226 206 217 215 219 216 210 207 208 203 200 201 198 194 197 200 202 205 209 214 216 215
257 251 257 267 283 289 288 275 267 257 250 267 268 239 228 226 230 216 211 217 218 218 215 208 207 204 205 206 198 197 196 197 199 199 204 212 216 217
252 240 244 228 270 274 284 286 282 279 270 268 270 246 239 226 229 229 222 224 222 223 220 214 208 202 203 205 199 199 194 192 194 195 198 205 213 217
299 272 263 257 261 270 266 268 278 279 275 269 268 259 238 222 217 228 217 210 220 216 223 226 219 206 203 201 201 200 191 185 188 189 192 195 205 214
8 355 335 305 303 307 304 287 276 275 278 276 273 263 243 223 227 225 223 211 220 208 207 211 209 210 210 210 208 198 188 186 187 188 190 191 196 206
4 351 336 307 307 316 316 310 301 290 283 279 277 268 254 234 232 229 226 216 224 200 201 217 201 209 210 210 210 201 193 191 191 191 192 193 193 198
4 353 344 345 336 317 310 308 299 291 284 275 267 267 265 248 231 230 230 222 220 186 196 218 200 207 211 215 210 200 195 195 194 193 191 190 191 195
346 337 331 330 331 324 316 305 296 290 282 275 267 263 261 260 242 240 233 232 236 203 182 207 203 211 209 211 212 205 198 195 194 193 191 190 190 193
330 327 336 334 327 326 319 308 303 295 288 281 273 273 268 261 252 250 246 234 225 206 191 202 193 194 200 202 203 205 203 201 197 195 192 188 186 189
340 347 344 337 332 329 324 314 306 297 290 286 282 276 273 270 259 246 242 242 230 212 189 195 179 162 172 189 190 201 207 205 199 195 189 184 181 178
338 337 335 333 331 328 324 315 303 301 292 278 275 270 267 264 258 246 235 231 236 232 189 183 180 174 162 157 186 192 198 202 199 193 185 181 179 171
334 328 329 328 328 328 325 320 319 315 305 290 270 262 262 259 257 244 231 224 226 230 188 185 181 180 174 160 178 184 193 194 190 183 180 180 180 176
328 330 332 329 330 327 325 327 328 322 314 308 298 280 263 263 261 247 228 223 223 223 200 195 198 187 189 187 166 180 169 169 178 172 168 170 171 170
332 339 335 330 330 330 329 327 325 318 314 307 300 295 286 269 262 254 231 219 218 216 207 198 198 189 194 191 175 174 159 139 136 135 131 126 131 143
342 341 334 335 334 333 330 327 324 321 315 310 304 297 289 278 258 249 234 212 208 194 167 166 178 157 156 152 164 166 152 141 148 142 143 138 138 143
346 337 334 334 331 329 328 325 322 319 314 309 301 295 284 275 268 244 224 210 199 186 171 153 136 119 91 45 76 153 151 146 147 146 147 143 147 158
340 330 327 325 323 323 322 319 316 313 311 307 302 297 286 276 265 239 217 204 189 176 170 167 170 168 166 152 75 143 146 146 145 139 134 135 156 163
330 321 319 319 321 321 319 316 314 314 311 311 310 303 292 279 262 230 207 186 165 153 154 165 178 178 174 152 130 109 132 145 148 142 128 114 116 131
325 321 319 317 317 316 314 313 313 313 313 315 314 310 299 280 253 210 180 165 154 146 147 141 122 115 108 108 106 105 109 125 134 138 137 128 120 121
320 318 318 316 315 313 313 314 314 315 314 317 318 315 309 311 34 126 130 132 127 122 115 111 115 117 117 121 123 121 116 110 109 114 111 106 125 154
316 315 314 313 312 313 313 314 314 313 312 318 320 318 319 351 63 99 108 112 115 115 115 109 102 103 110 121 122 119 115 112 110 108 105 106 107 111
Height
1427 1426 1424 1423 1423 1422 1420 1419 1418 1412 1409 1411 1412 1410 1414 1417 1419 1423 1424 1425 1429 1433 1436 1439 1442 1447 1453 1457 1461 1464 1468 1471 1473 1475 1479 1482 1485 1487
1421 1420 1418 1416 1416 1416 1415 1414 1411 1409 1405 1406 1404 1405 1410 1413 1412 1413 1415 1417 1421 1425 1429 1433 1435 1438 1443 1449 1453 1457 1461 1464 1467 1469 1472 1475 1478 1480
1413 1412 1411 1410 1409 1408 1408 1408 1405 1403 1401 1400 1399 1398 1401 1403 1405 1405 1406 1408 1412 1417 1421 1425 1428 1431 1435 1440 1444 1449 1452 1456 1459 1462 1465 1468 1472 1474
1406 1405 1404 1403 1403 1402 1402 1401 1399 1398 1398 1395 1393 1392 1391 1392 1395 1397 1399 1400 1403 1407 1412 1416 1421 1425 1429 1433 1437 1441 1445 1449 1452 1455 1459 1462 1465 1468
1399 1398 1397 1396 1396 1396 1395 1394 1392 1391 1390 1389 1387 1387 1386 1385 1388 1388 1390 1393 1394 1398 1403 1408 1412 1416 1420 1425 1428 1432 1437 1441 1444 1448 1452 1455 1459 1462
1390 1390 1390 1390 1389 1389 1387 1386 1386 1384 1382 1382 1381 1380 1380 1379 1379 1380 1381 1383 1386 1392 1395 1398 1402 1406 1410 1415 1419 1423 1426 1431 1436 1439 1443 1447 1451 1454
1383 1383 1383 1383 1382 1381 1379 1377 1377 1376 1375 1374 1373 1373 1371 1372 1372 1373 1373 1374 1378 1381 1383 1387 1391 1396 1399 1404 1407 1410 1415 1420 1426 1430 1434 1438 1442 1446
1377 1377 1376 1376 1374 1373 1371 1370 1369 1369 1367 1367 1366 1365 1364 1366 1366 1367 1367 1368 1367 1368 1373 1375 1380 1384 1388 1392 1396 1399 1403 1410 1415 1420 1424 1429 1433 1437
1371 1370 1368 1367 1366 1364 1363 1362 1361 1360 1360 1360 1358 1356 1357 1357 1359 1359 1359 1359 1358 1361 1365 1364 1366 1371 1377 1382 1385 1389 1392 1398 1404 1409 1414 1418 1423 1428
1366 1363 1362 1360 1358 1356 1354 1352 1350 1349 1349 1349 1348 1347 1348 1348 1350 1351 1351 1350 1352 1353 1353 1354 1356 1360 1365 1369 1374 1378 1382 1386 1392 1396 1402 1407 1412 1417
1361 1358 1356 1353 1351 1349 1347 1343 1340 1338 1337 1337 1336 1335 1335 1337 1339 1340 1340 1340 1339 1340 1342 1345 1348 1351 1354 1357 1361 1367 1371 1376 1381 1386 1391 1396 1401 1407
1356 1353 1350 1347 1344 1342 1339 1336 1331 1328 1327 1325 1324 1323 1323 1324 1326 1328 1328 1328 1328 1328 1330 1336 1338 1342 1346 1348 1353 1358 1362 1366 1370 1375 1380 1385 1390 1396
1352 1347 1344 1341 1339 1336 1332 1329 1325 1322 1317 1315 1313 1312 1311 1311 1313 1315 1315 1316 1317 1317 1319 1326 1329 1332 1336 1339 1342 1346 1351 1356 1362 1366 1370 1375 1380 1385
1348 1344 1340 1336 1333 1330 1326 1322 1318 1313 1309 1305 1302 1301 1300 1299 1300 1301 1302 1303 1305 1309 1311 1314 1317 1321 1326 1330 1334 1337 1341 1346 1352 1357 1361 1366 1372 1376
1343 1340 1335 1331 1327 1323 1320 1315 1310 1304 1299 1297 1293 1290 1289 1289 1289 1290 1290 1292 1295 1298 1301 1304 1307 1311 1316 1319 1323 1328 1332 1336 1342 1348 1352 1357 1362 1367
1337 1332 1329 1326 1322 1318 1313 1308 1303 1298 1293 1289 1285 1281 1279 1277 1277 1278 1278 1280 1283 1285 1288 1292 1297 1301 1305 1309 1313 1318 1323 1328 1333 1338 1342 1348 1353 1359
1333 1328 1324 1320 1315 1310 1306 1301 1296 1291 1286 1281 1276 1271 1267 1265 1264 1266 1265 1267 1269 1272 1276 1281 1287 1290 1295 1299 1303 1308 1314 1320 1324 1329 1335 1341 1349 1356
1331 1326 1321 1316 1311 1306 1300 1295 1291 1286 1280 1274 1268 1262 1257 1253 1252 1252 1252 1254 1256 1260 1265 1269 1274 1280 1287 1293 1298 1301 1306 1312 1318 1324 1330 1337 1343 1351
1329 1324 1319 1314 1309 1303 1298 1292 1286 1280 1274 1267 1260 1254 1247 1243 1241 1240 1240 1243 1245 1249 1253 1259 1264 1270 1276 1284 1290 1296 1301 1306 1313 1320 1327 1334 1340 1346
1325 1321 1316 1311 1306 1300 1295 1289 1282 1275 1267 1261 1254 1246 1240 1234 1231 1230 1231 1232 1235 1239 1245 1250 1256 1261 1267 1273 1281 1289 1298 1304 1310 1316 1324 1330 1337 1344
1320 1316 1312 1307 1302 1298 1292 1286 1279 1272 1264 1257 1248 1241 1234 1228 1225 1224 1225 1226 1229 1233 1238 1245 1251 1257 1262 1270 1278 1286 1294 1302 1308 1314 1320 1326 1332 1337
1316 1311 1307 1304 1299 1295 1289 1283 1275 1268 1260 1253 1245 1238 1231 1226 1222 1221 1222 1224 1226 1231 1236 1243 1250 1256 1263 1270 1277 1284 1292 1299 1306 1313 1320 1326 1329 1335
1311 1307 1303 1299 1295 1291 1286 1280 1273 1266 1258 1251 1244 1237 1232 1227 1224 1222 1223 1225 1228 1232 1238 1244 1251 1258 1265 1272 1278 1285 1292 1298 1305 1313 1320 1325 1329 1334